[[{"header":{"parameterUnit":"m.s-1","parameterCategory":2,"la1":30.2992,"la2":30.254,"lo1":-89.0895,"lo2":-89.0443,"dy":0.0025,"dx":0.0025,"nx":19,"ny":19,"refTime":"2026-04-24T09:00:00:Z","depth":"0","parameterNumber":2,"parameterNumberName":"U-component_of_CURRENTS"},"data":[0,0,0,0.3747,0.3751,0.3918,0.3918,0.4061,0.4062,0,0,0,0,0,0,0,0,0,0,0,0.3676,0.3677,0.3747,0.3751,0.3918,0.3918,0.4061,0.4062,0,0,0,0,0,0,0,0,0,0,0,0.3676,0.3676,0.3677,0.3752,0.3917,0.3918,0.4061,0.3954,0,0,0,0,0,0,0,0,0,0,0.3801,0.373,0.3676,0.3677,0.3753,0.3917,0.3919,0.3949,0.396,0.3964,0,0.3982,0,0.4028,0.407,0.407,0,0,0,0.3756,0.3721,0.3781,0.3678,0.3754,0.3917,0.3844,0.3956,0.3969,0.3978,0.3984,0.3991,0.4031,0.4071,0.4071,0.4137,0.4137,0,0,0.3747,0.3695,0.3772,0.3788,0.3786,0.3838,0.3849,0.3965,0.3961,0.3985,0.3995,0.4033,0.4071,0.4072,0.4137,0.4137,0,0,0,0.3717,0.3688,0.3747,0.3781,0.3819,0.3843,0.3855,0.3956,0.398,0.3997,0.4035,0.4072,0.4073,0.4137,0.4137,0.4101,0,0,0,0.3712,0.3671,0.3742,0.3711,0.3817,0.3897,0.3843,0.3971,0.3987,0.4034,0.4072,0.4075,0.4137,0.4137,0.4102,0.4133,0,0,0,0.367,0.3667,0.3686,0.3708,0.3783,0.3896,0.3927,0.3976,0.4009,0.407,0.4075,0.4137,0.4137,0.4103,0.4133,0.4132,0,0,0,0.3613,0.3629,0.3684,0.3722,0.3781,0.3881,0.3927,0.4004,0.4054,0.4073,0.4137,0.4137,0.4104,0.4134,0.4133,0.3933,0.3916,0,0,0.3604,0.3626,0.3655,0.3709,0.3792,0.3859,0.3923,0.4007,0.4047,0.4095,0.4098,0.4102,0.4133,0.4133,0.3917,0.3899,0,0,0,0.3635,0.3654,0.3689,0.3753,0.3835,0.3905,0.3983,0.401,0.4066,0.4076,0.4106,0.4128,0.4128,0.4008,0.3995,0.3765,0.4135,0.4136,0.4136,0.3543,0.3624,0.3675,0.3776,0.3836,0.3934,0.3985,0.4034,0.4054,0.4066,0.4099,0.4083,0.3952,0.394,0.3706,0.4076,0.4076,0.4076,0.4076,0.3541,0.3568,0.3672,0.3744,0.3826,0.3875,0.3988,0.4013,0.4072,0.408,0.4079,0.3978,0.3923,0.3678,0.4074,0.4074,0.4075,0.4075,0.4075,0.348,0.3497,0.3563,0.3665,0.3734,0.3836,0.3894,0.3984,0.406,0.4082,0.3949,0.3947,0.3734,0.4064,0.4064,0.4064,0.4064,0.4064,0.4064,0.3357,0.3432,0.3469,0.3583,0.362,0.3697,0.3841,0.3894,0.3927,0.3932,0.393,0.3678,0.4081,0.4084,0.4066,0.4066,0.4065,0.4065,0.4065,0.3226,0.3286,0.3334,0.3377,0.347,0.3429,0.3639,0.3666,0.375,0.3726,0.3447,0.384,0.3845,0.3852,0.385,0.3774,0.3774,0.3774,0.3774,0.3108,0.3158,0.3174,0.3206,0.3262,0.3292,0.317,0.3233,0.3241,0.3145,0.32,0.3094,0.3116,0.3075,0.31,0.3083,0.2813,0.2812,0.2811,0.299,0.3041,0.2981,0.3066,0.3129,0.3071,0.2807,0.2607,0.2658,0.2758,0.2921,0.2962,0.2798,0.2852,0.2786,0.284,0.2813,0,0]},{"header":{"parameterUnit":"m.s-1","parameterCategory":2,"la1":30.2992,"la2":30.254,"lo1":-89.0895,"lo2":-89.0443,"dy":0.0025,"dx":0.0025,"nx":19,"ny":19,"refTime":"2026-04-24T09:00:00:Z","depth":"0","parameterNumber":3,"parameterNumberName":"V-component_of_CURRENTS"},"data":[0,0,0,-0.011,-0.0114,-0.0354,-0.0356,-0.0562,-0.0563,0,0,0,0,0,0,0,0,0,0,0,-0.0027,-0.0028,-0.011,-0.0114,-0.0354,-0.0356,-0.0562,-0.0563,0,0,0,0,0,0,0,0,0,0,0,-0.0027,-0.0027,-0.0028,-0.0115,-0.0354,-0.0356,-0.0561,-0.0415,0,0,0,0,0,0,0,0,0,0,-0.0199,-0.0111,-0.0027,-0.0028,-0.0116,-0.0353,-0.0356,-0.041,-0.0424,-0.0411,0,-0.0426,0,-0.0478,-0.0571,-0.0571,0,0,0,-0.0156,-0.0099,-0.0165,-0.0028,-0.0117,-0.0353,-0.0258,-0.0419,-0.0435,-0.0429,-0.043,-0.0438,-0.0482,-0.0571,-0.0572,-0.0556,-0.0555,0,0,-0.0142,-0.0076,-0.0154,-0.0174,-0.0149,-0.025,-0.0264,-0.043,-0.0429,-0.0431,-0.0444,-0.0485,-0.0572,-0.0573,-0.0557,-0.0556,0,0,0,-0.0076,-0.0066,-0.0132,-0.0165,-0.0205,-0.0255,-0.0273,-0.0423,-0.0445,-0.0447,-0.0487,-0.0573,-0.0574,-0.0558,-0.0556,-0.0394,0,0,0,-0.007,-0.0025,-0.0125,-0.0089,-0.0202,-0.0327,-0.0261,-0.0434,-0.0455,-0.0486,-0.0573,-0.0575,-0.0559,-0.0557,-0.0401,-0.031,0,0,0,-0.0021,-0.002,-0.004,-0.0085,-0.0171,-0.0326,-0.0361,-0.0441,-0.0476,-0.0571,-0.0576,-0.056,-0.0558,-0.0407,-0.0321,-0.0212,0,0,0,0.004,0.0033,-0.0037,-0.0055,-0.0168,-0.0247,-0.0361,-0.0444,-0.0515,-0.0573,-0.0559,-0.0557,-0.0409,-0.0328,-0.022,-0.0083,-0.0038,0,0,0.0064,0.0038,0.0025,-0.0043,-0.0087,-0.0219,-0.0224,-0.0372,-0.0468,-0.0508,-0.0509,-0.0398,-0.0322,-0.0214,0.0058,0.01,0,0,0,0.0053,0.0047,0.0022,-0.0022,-0.0096,-0.012,-0.0259,-0.0296,-0.0362,-0.0492,-0.0394,-0.035,-0.0287,-0.0221,-0.0188,-0.0248,-0.0545,-0.0546,-0.0546,0.0172,0.0109,0.01,0.0037,0.0014,-0.0056,-0.0065,-0.0132,-0.0249,-0.0235,-0.0215,-0.0016,0.0057,0.0083,0.002,-0.0224,-0.0223,-0.0223,-0.0222,0.0215,0.0207,0.0168,0.0133,0.0129,0.0134,0.012,0.0067,0.0093,-0.0048,0.0005,-0.0049,0.013,0.0049,-0.0212,-0.0214,-0.0215,-0.0216,-0.0217,0.0284,0.0274,0.0244,0.0227,0.0267,0.0253,0.0358,0.0311,0.0253,0.0309,0.0341,0.0339,0.0265,0.0316,0.0317,0.0318,0.0319,0.0319,0.032,0.0368,0.0339,0.0347,0.0323,0.0353,0.0419,0.0486,0.055,0.0598,0.0554,0.0554,0.0349,0.0148,0.0124,0.0334,0.0332,0.033,0.0328,0.0327,0.0438,0.0422,0.0451,0.0467,0.0524,0.0661,0.0704,0.0898,0.0939,0.1007,0.0777,0.0683,0.0647,0.0619,0.0606,0.0928,0.0928,0.0928,0.0928,0.0506,0.0488,0.0564,0.0623,0.0708,0.0784,0.1055,0.1179,0.1153,0.1107,0.0988,0.0878,0.0856,0.0821,0.0789,0.0773,0.1131,0.1131,0.113,0.0565,0.0584,0.0668,0.07,0.0795,0.0952,0.1214,0.1391,0.1303,0.1123,0.0886,0.0878,0.0687,0.0658,0.0567,0.0526,0.0485,0,0]}],[{"header":{"parameterUnit":"m.s-1","parameterCategory":2,"la1":30.2992,"la2":30.254,"lo1":-89.0895,"lo2":-89.0443,"dy":0.0025,"dx":0.0025,"nx":19,"ny":19,"refTime":"2026-04-24T09:00:00:Z","depth":"2","parameterNumber":2,"parameterNumberName":"U-component_of_CURRENTS"},"data":[0,0,0,0.282,0.2823,0.3004,0.3004,0.3115,0.3115,0,0,0,0,0,0,0,0,0,0,0,0.2758,0.2759,0.2819,0.2823,0.3003,0.3005,0.3114,0.3115,0,0,0,0,0,0,0,0,0,0,0,0.2758,0.2759,0.276,0.2824,0.3003,0.3005,0.3114,0.3013,0,0,0,0,0,0,0,0,0,0,0.2855,0.2823,0.2759,0.276,0.2825,0.3003,0.3005,0.3009,0.3019,0.2992,0,0.3014,0,0.3055,0.3118,0.3118,0,0,0,0.2843,0.2816,0.2845,0.276,0.2826,0.3003,0.2928,0.3016,0.3027,0.3004,0.3016,0.3022,0.3057,0.3118,0.3118,0.319,0.319,0,0,0.2833,0.2811,0.2838,0.2851,0.2863,0.2922,0.2933,0.3024,0.3038,0.3017,0.3025,0.3059,0.3118,0.3119,0.3189,0.319,0,0,0,0.2791,0.2804,0.2835,0.2845,0.2882,0.2926,0.294,0.3036,0.304,0.3026,0.306,0.3118,0.3119,0.3189,0.319,0.3183,0,0,0,0.2786,0.2778,0.2829,0.2821,0.288,0.2981,0.2949,0.3035,0.3047,0.3059,0.3118,0.3119,0.3188,0.3189,0.3182,0.3191,0,0,0,0.2752,0.2775,0.2789,0.2819,0.2887,0.2981,0.2994,0.3039,0.3065,0.3118,0.312,0.3188,0.3189,0.3181,0.319,0.3196,0,0,0,0.2733,0.2746,0.2788,0.2813,0.2884,0.2948,0.2995,0.3077,0.3125,0.3119,0.3188,0.319,0.3181,0.3189,0.3195,0.2901,0.2882,0,0,0.2731,0.2746,0.2757,0.2797,0.2836,0.2925,0.2985,0.3083,0.313,0.3151,0.3155,0.3182,0.319,0.3196,0.2967,0.2944,0,0,0,0.2743,0.2746,0.2765,0.2805,0.2862,0.2946,0.3034,0.3087,0.3183,0.3161,0.3207,0.3213,0.3216,0.3038,0.3022,0.3195,0.3195,0.3195,0.3195,0.271,0.2735,0.2754,0.2795,0.2847,0.2968,0.3048,0.3139,0.3158,0.3221,0.3225,0.3252,0.3062,0.3046,0.324,0.324,0.324,0.324,0.324,0.2677,0.2667,0.2739,0.2767,0.2856,0.2921,0.3066,0.3133,0.3231,0.3251,0.3253,0.3062,0.3027,0.324,0.324,0.324,0.324,0.324,0.324,0.2585,0.2591,0.264,0.2712,0.2805,0.2921,0.2997,0.312,0.3235,0.3268,0.3071,0.3067,0.3238,0.3265,0.3265,0.3265,0.3265,0.3265,0.3265,0.2476,0.2528,0.2554,0.2654,0.2701,0.2794,0.2963,0.3006,0.3028,0.3055,0.3052,0.3261,0.326,0.3241,0.3266,0.3266,0.3266,0.3266,0.3266,0.2321,0.2394,0.2426,0.2467,0.2577,0.2521,0.2704,0.2683,0.2768,0.2716,0.2921,0.2929,0.2904,0.2913,0.2886,0.2819,0.2819,0.2819,0.2819,0.2224,0.2259,0.2323,0.2363,0.2394,0.2401,0.22,0.2167,0.2323,0.2371,0.2391,0.2295,0.2321,0.2261,0.2286,0.2246,0.2013,0.2011,0.201,0.2134,0.2195,0.2184,0.2283,0.2313,0.2191,0.1878,0.1616,0.1711,0.1987,0.2334,0.2748,0.2656,0.2678,0.2629,0.2652,0.2605,0,0]},{"header":{"parameterUnit":"m.s-1","parameterCategory":2,"la1":30.2992,"la2":30.254,"lo1":-89.0895,"lo2":-89.0443,"dy":0.0025,"dx":0.0025,"nx":19,"ny":19,"refTime":"2026-04-24T09:00:00:Z","depth":"2","parameterNumber":3,"parameterNumberName":"V-component_of_CURRENTS"},"data":[0,0,0,0.0057,0.0054,-0.0156,-0.0158,-0.0447,-0.0449,0,0,0,0,0,0,0,0,0,0,0,0.0112,0.0111,0.0057,0.0054,-0.0156,-0.0158,-0.0447,-0.0449,0,0,0,0,0,0,0,0,0,0,0,0.0112,0.0111,0.0111,0.0054,-0.0156,-0.0158,-0.0447,-0.0297,0,0,0,0,0,0,0,0,0,0,-0.0096,-0.0019,0.0112,0.0111,0.0053,-0.0155,-0.0158,-0.029,-0.0306,-0.0339,0,-0.0347,0,-0.0371,-0.0464,-0.0464,0,0,0,-0.0006,-0.0006,-0.0049,0.0111,0.0052,-0.0155,-0.0078,-0.03,-0.0318,-0.036,-0.0351,-0.0361,-0.0375,-0.0465,-0.0466,-0.0524,-0.0523,0,0,0.0006,0.005,-0.0036,-0.0059,0.0029,-0.0071,-0.0084,-0.0311,-0.0324,-0.0352,-0.0368,-0.038,-0.0467,-0.0468,-0.0525,-0.0524,0,0,0,0.008,0.0058,0.0018,-0.0048,-0.0065,-0.0075,-0.0091,-0.0315,-0.0323,-0.0371,-0.0384,-0.0468,-0.047,-0.0526,-0.0525,-0.0333,0,0,0,0.0084,0.0106,0.0025,0.0044,-0.006,-0.0187,-0.0089,-0.0309,-0.0334,-0.0382,-0.0468,-0.0472,-0.0527,-0.0526,-0.034,-0.0244,0,0,0,0.0116,0.0109,0.0097,0.0048,-0.0013,-0.0184,-0.021,-0.0317,-0.0339,-0.0465,-0.0473,-0.0528,-0.0526,-0.0347,-0.0256,-0.0152,0,0,0,0.0146,0.0144,0.0098,0.0092,-0.001,-0.0049,-0.0209,-0.0289,-0.0381,-0.0469,-0.0527,-0.0525,-0.0349,-0.0264,-0.0159,-0.011,-0.007,0,0,0.0163,0.0147,0.0145,0.0101,0.0099,-0.0027,-0.0023,-0.0224,-0.0358,-0.0468,-0.047,-0.0338,-0.0257,-0.0153,0.0023,0.006,0,0,0,0.0163,0.0165,0.0157,0.014,0.0102,0.0096,-0.0069,-0.0132,-0.0259,-0.039,-0.0345,-0.03,-0.024,-0.0228,-0.0198,-0.0514,-0.0514,-0.0515,-0.0515,0.0229,0.0209,0.0226,0.0214,0.0211,0.0161,0.0148,0.0034,-0.0128,-0.0139,-0.0148,0.0056,0.0072,0.0094,-0.0164,-0.0163,-0.0162,-0.0162,-0.0161,0.0286,0.0306,0.0301,0.0305,0.0328,0.0332,0.0319,0.0241,0.0207,0.0035,0.0083,-0.0032,0.0138,-0.0146,-0.0149,-0.0151,-0.0153,-0.0154,-0.0155,0.0356,0.0363,0.035,0.0382,0.0433,0.0439,0.0551,0.0497,0.0382,0.0432,0.0372,0.0368,0.0181,0.0418,0.0419,0.042,0.0421,0.0421,0.0422,0.0427,0.042,0.0456,0.0471,0.0515,0.0604,0.0676,0.0726,0.0707,0.0598,0.0596,0.0251,0.0232,0.0213,0.0436,0.0434,0.0432,0.043,0.0429,0.0496,0.0495,0.0559,0.0601,0.0705,0.083,0.0908,0.1001,0.1018,0.1015,0.0696,0.0685,0.0626,0.0599,0.0587,0.0895,0.0895,0.0895,0.0895,0.0556,0.0557,0.0655,0.0751,0.0879,0.0953,0.112,0.1116,0.1037,0.0932,0.093,0.08,0.0782,0.072,0.069,0.0675,0.1006,0.1006,0.1006,0.0607,0.0636,0.0719,0.0793,0.0938,0.1077,0.1157,0.1094,0.0978,0.1003,0.0876,0.0917,0.0712,0.0689,0.0571,0.0533,0.0498,0,0]}],[{"header":{"parameterUnit":"m.s-1","parameterCategory":2,"la1":30.2992,"la2":30.254,"lo1":-89.0895,"lo2":-89.0443,"dy":0.0025,"dx":0.0025,"nx":19,"ny":19,"refTime":"2026-04-24T09:00:00:Z","depth":"4","parameterNumber":2,"parameterNumberName":"U-component_of_CURRENTS"},"data":[0,0,0,0.0456,0.0453,0.0374,0.0374,0.0578,0.058,0,0,0,0,0,0,0,0,0,0,0,0.0529,0.0529,0.0456,0.0453,0.0374,0.0374,0.0577,0.058,0,0,0,0,0,0,0,0,0,0,0,0.0529,0.0529,0.0529,0.0453,0.0374,0.0374,0.0577,0.0568,0,0,0,0,0,0,0,0,0,0,0.061,0.0615,0.0529,0.0529,0.0452,0.0374,0.0374,0.0565,0.0569,0.0691,0,0.0684,0,0.0611,0.0598,0.0599,0,0,0,0.0484,0.0611,0.0586,0.0529,0.0451,0.0374,0.0418,0.0565,0.057,0.0698,0.0686,0.069,0.0615,0.06,0.0601,0.0896,0.0897,0,0,0.0488,0.0526,0.0581,0.0589,0.0444,0.0421,0.0415,0.0565,0.0588,0.0686,0.0692,0.0618,0.0602,0.0604,0.0894,0.0896,0,0,0,0.048,0.053,0.0494,0.0584,0.053,0.0417,0.0412,0.0581,0.0568,0.0693,0.0621,0.0603,0.0606,0.0893,0.0895,0.1032,0,0,0,0.0484,0.0521,0.0497,0.052,0.0526,0.0508,0.0425,0.0559,0.057,0.0619,0.0603,0.0609,0.0892,0.0894,0.1025,0.0936,0,0,0,0.053,0.0525,0.0518,0.0522,0.0465,0.0502,0.0496,0.0558,0.0527,0.0599,0.061,0.0891,0.0894,0.1019,0.0931,0.106,0,0,0,0.0569,0.0567,0.052,0.0493,0.0466,0.0467,0.0494,0.0543,0.0609,0.0604,0.0892,0.0895,0.1017,0.0928,0.1055,0.0853,0,0,0,0.0582,0.057,0.0546,0.05,0.0464,0.0479,0.0538,0.0645,0.0701,0.0867,0.0871,0.1027,0.093,0.1059,0.1029,0,0,0,0,0.0558,0.054,0.0525,0.0483,0.0484,0.056,0.0618,0.0706,0.0901,0.0741,0.1049,0.098,0.1059,0.093,0.0909,0.0909,0.0908,0.0908,0.0908,0.0629,0.057,0.0547,0.0511,0.0572,0.0644,0.0739,0.0884,0.0964,0.1098,0.1116,0.131,0.1185,0.1219,0.1219,0.122,0.1221,0.1221,0.1221,0.0633,0.0591,0.0599,0.057,0.0657,0.0781,0.0957,0.1037,0.1224,0.124,0.132,0.1107,0.1235,0.1233,0.1231,0.1229,0.1228,0.1227,0.1226,0.0642,0.0617,0.0605,0.0634,0.0767,0.0901,0.1054,0.1159,0.1306,0.1362,0.1321,0.1378,0.1341,0.1507,0.1508,0.1508,0.1508,0.1508,0.1509,0.067,0.0645,0.0626,0.0698,0.0775,0.0934,0.1115,0.1193,0.134,0.134,0.1426,0.1404,0.1395,0.1356,0.1513,0.1512,0.1511,0.1511,0.1511,0.0624,0.0642,0.0619,0.0642,0.0773,0.0891,0.1069,0.1195,0.1298,0.1336,0.1365,0.1371,0.128,0.1273,0.1225,0.1349,0.1347,0.1345,0,0.0622,0.0612,0.0588,0.0599,0.0694,0.0831,0.0943,0.1066,0.1188,0.116,0.1307,0.1335,0.1339,0.1228,0.1219,0.1159,0,0,0,0.0607,0.0592,0.0577,0.0557,0.0646,0.0791,0.0969,0.0989,0.1172,0.1182,0.1293,0.1306,0.1376,0.1524,0.1397,0.1386,0.1315,0,0]},{"header":{"parameterUnit":"m.s-1","parameterCategory":2,"la1":30.2992,"la2":30.254,"lo1":-89.0895,"lo2":-89.0443,"dy":0.0025,"dx":0.0025,"nx":19,"ny":19,"refTime":"2026-04-24T09:00:00:Z","depth":"4","parameterNumber":3,"parameterNumberName":"V-component_of_CURRENTS"},"data":[0,0,0,0.0516,0.052,0.0687,0.0688,0.0756,0.0756,0,0,0,0,0,0,0,0,0,0,0,0.0445,0.0446,0.0516,0.052,0.0687,0.0688,0.0756,0.0756,0,0,0,0,0,0,0,0,0,0,0,0.0444,0.0445,0.0447,0.0521,0.0687,0.0688,0.0756,0.0663,0,0,0,0,0,0,0,0,0,0,0.0518,0.048,0.0445,0.0447,0.0522,0.0687,0.0688,0.066,0.0669,0.0642,0,0.0675,0,0.0726,0.0758,0.0759,0,0,0,0.0509,0.0473,0.052,0.0447,0.0524,0.0687,0.0608,0.0666,0.0676,0.0653,0.0676,0.068,0.0727,0.0759,0.0759,0.0773,0.0773,0,0,0.0499,0.047,0.0514,0.0526,0.0573,0.0603,0.0614,0.0673,0.0681,0.0677,0.0683,0.0728,0.0759,0.0759,0.0773,0.0773,0,0,0,0.0481,0.0464,0.0511,0.0521,0.0569,0.0608,0.0621,0.0678,0.0695,0.0684,0.0729,0.0759,0.076,0.0773,0.0773,0.0864,0,0,0,0.0475,0.0454,0.0507,0.0491,0.0569,0.0648,0.0624,0.0691,0.07,0.0728,0.0759,0.076,0.0773,0.0773,0.0861,0.0804,0,0,0,0.0436,0.045,0.0472,0.0489,0.0569,0.0649,0.067,0.0695,0.0727,0.0759,0.076,0.0773,0.0773,0.0859,0.0803,0.08,0,0,0,0.0396,0.0436,0.0471,0.0518,0.0568,0.0659,0.067,0.0745,0.0777,0.0759,0.0773,0.0773,0.0859,0.0803,0.08,0.0758,0,0,0,0.0421,0.0438,0.0462,0.0499,0.0583,0.0635,0.0697,0.075,0.0755,0.0742,0.0744,0.0862,0.0803,0.08,0.0743,0,0,0,0,0.0453,0.0474,0.0504,0.0561,0.063,0.0691,0.0753,0.0771,0.0817,0.0777,0.0831,0.0788,0.0785,0.0759,0.0772,0.0772,0.0772,0.0772,0.0772,0.0453,0.0487,0.054,0.0597,0.066,0.0731,0.0759,0.0783,0.0824,0.0856,0.0845,0.0862,0.0841,0.0873,0.0873,0.0874,0.0874,0.0874,0.0875,0.0495,0.0524,0.0573,0.0645,0.0699,0.0766,0.0799,0.0827,0.0834,0.0869,0.0866,0.0833,0.0883,0.0881,0.088,0.0879,0.0878,0.0878,0.0877,0.0503,0.052,0.057,0.0673,0.0754,0.082,0.0849,0.0858,0.0865,0.0863,0.0843,0.0873,0.0884,0.0914,0.0914,0.0914,0.0913,0.0913,0.0913,0.0492,0.0537,0.0606,0.0714,0.0791,0.0869,0.0892,0.0873,0.0872,0.0844,0.0885,0.0873,0.0872,0.0881,0.091,0.091,0.0911,0.0911,0.0911,0.05,0.0533,0.0624,0.0699,0.0846,0.089,0.0923,0.0861,0.0829,0.0778,0.083,0.0835,0.077,0.077,0.0775,0.0772,0.0771,0.0771,0,0.0498,0.0521,0.0634,0.0735,0.0828,0.089,0.0858,0.0834,0.0778,0.0772,0.0815,0.0877,0.088,0.081,0.0809,0.0816,0,0,0,0.0506,0.0533,0.0609,0.0714,0.0823,0.0821,0.0844,0.0812,0.0805,0.0743,0.0758,0.0761,0.0875,0.0899,0.0808,0.0807,0.0816,0,0]}]]